,,,PA_Meas_PMT16A,,PR_Meas_QMR101_102,,RH_Meas_QMH101,,SR_Meas_QMS101,,TA_Meas_QMH101,,GenWind,,GenWind,
date,time,status,PA,status,PR,status,RH,status,SR,status,TA,status,DirAvg,status,SpdAvg,
2010-03-18, 00:00:04,VALID,1003.45,VALID,0,VALID,91.6928,VALID,0,VALID,24.1092,VALID,49,VALID,0.751953,
2010-03-18, 00:01:04,VALID,1003.48,VALID,0,VALID,91.7538,VALID,0,VALID,24.1305,VALID,60,VALID,0.778125,
2010-03-18, 00:02:04,VALID,1003.44,VALID,0,VALID,91.8301,VALID,0,VALID,24.1305,VALID,60,VALID,0.621094,
2010-03-18, 00:03:04,VALID,1003.43,VALID,0,VALID,91.7996,VALID,0,VALID,24.111,VALID,60,VALID,0.0195313,
2010-03-18, 00:04:04,VALID,1003.39,VALID,0,VALID,91.6775,VALID,0,VALID,24.0915,VALID,60,VALID,0,
2010-03-18, 00:05:04,VALID,1003.41,VALID,0,VALID,91.6699,VALID,0,VALID,24.0525,VALID,60,VALID,0,
2010-03-18, 00:06:04,VALID,1003.37,VALID,0,VALID,91.7004,VALID,0,VALID,24.0525,VALID,60,VALID,0,
2010-03-18, 00:07:04,VALID,1003.4,VALID,0,VALID,91.7233,VALID,0,VALID,24.0329,VALID,60,VALID,0,
2010-03-18, 00:08:04,VALID,1003.39,VALID,0,VALID,91.7691,VALID,0,VALID,24.0329,VALID,60,VALID,0,
2010-03-18, 00:09:04,VALID,1003.36,VALID,0,VALID,91.7614,VALID,0,VALID,24.0525,VALID,60,VALID,0,
2010-03-18, 00:10:04,VALID,1003.36,VALID,0,VALID,91.8454,VALID,0,VALID,24.0525,VALID,60,VALID,0,
2010-03-18, 00:11:04,VALID,1003.34,VALID,0,VALID,91.9751,VALID,0,VALID,24.072,VALID,60,VALID,0,
2010-03-18, 00:12:04,VALID,1003.31,VALID,0,VALID,91.853,VALID,0,VALID,24.072,VALID,30,VALID,0,
2010-03-18, 00:13:04,VALID,1003.29,VALID,0,VALID,91.8835,VALID,0,VALID,24.072,VALID,30,VALID,0,
2010-03-18, 00:14:04,VALID,1003.32,VALID,0,VALID,91.9369,VALID,0,VALID,24.0915,VALID,30,VALID,0,
2010-03-18, 00:15:04,VALID,1003.27,VALID,0,VALID,91.9293,VALID,0,VALID,24.0915,VALID,30,VALID,0,
2010-03-18, 00:16:04,VALID,1003.27,VALID,0,VALID,91.9522,VALID,0,VALID,24.0915,VALID,30,VALID,0,
2010-03-18, 00:17:04,VALID,1003.26,VALID,0,VALID,91.9903,VALID,0,VALID,24.111,VALID,30,VALID,0,
2010-03-18, 00:18:04,VALID,1003.26,VALID,0,VALID,92.0209,VALID,0,VALID,24.1305,VALID,30,VALID,0,
2010-03-18, 00:19:04,VALID,1003.29,VALID,0,VALID,91.9674,VALID,0,VALID,24.1092,VALID,30,VALID,0,
2010-03-18, 00:20:04,VALID,1003.28,VALID,0,VALID,91.9598,VALID,0,VALID,24.1305,VALID,30,VALID,0,
2010-03-18, 00:21:04,VALID,1003.27,VALID,0,VALID,91.9827,VALID,0,VALID,24.1305,VALID,30,VALID,0,
2010-03-18, 00:22:04,VALID,1003.26,VALID,0,VALID,91.9674,VALID,0,VALID,24.1305,VALID,30,VALID,0,
2010-03-18, 00:23:04,VALID,1003.24,VALID,0,VALID,91.9751,VALID,0,VALID,24.1305,VALID,30,VALID,0,
2010-03-18, 00:24:04,VALID,1003.22,VALID,0,VALID,91.9751,VALID,0,VALID,24.1305,VALID,30,VALID,0,
2010-03-18, 00:25:04,VALID,1003.22,VALID,0,VALID,92.059,VALID,0,VALID,24.15,VALID,57,VALID,0,
2010-03-18, 00:26:04,VALID,1003.17,VALID,0,VALID,92.1734,VALID,0,VALID,24.1696,VALID,59,VALID,0,
2010-03-18, 00:27:04,VALID,1003.13,VALID,0,VALID,92.1277,VALID,0,VALID,24.2086,VALID,59,VALID,0,
2010-03-18, 00:28:04,VALID,1003.16,VALID,0,VALID,92.0743,VALID,0,VALID,24.2067,VALID,59,VALID,0,
2010-03-18, 00:29:04,VALID,1003.14,VALID,0,VALID,92.0361,VALID,0,VALID,24.2281,VALID,80,VALID,0,
2010-03-18, 00:30:04,VALID,1003.16,VALID,0,VALID,92.0971,VALID,0,VALID,24.2281,VALID,89,VALID,0,
2010-03-18, 00:31:04,VALID,1003.15,VALID,0,VALID,92.0437,VALID,0,VALID,24.2281,VALID,89,VALID,0,
2010-03-18, 00:32:04,VALID,1003.16,VALID,0,VALID,91.9827,VALID,0,VALID,24.2476,VALID,88,VALID,0,
2010-03-18, 00:33:04,VALID,1003.13,VALID,0,VALID,92.0132,VALID,0,VALID,24.2281,VALID,88,VALID,0,
2010-03-18, 00:34:04,VALID,1003.12,VALID,0,VALID,91.9522,VALID,0,VALID,24.2067,VALID,85,VALID,0,
2010-03-18, 00:35:04,VALID,1003.1,VALID,0,VALID,91.8835,VALID,0,VALID,24.2086,VALID,26,VALID,0,
2010-03-18, 00:36:04,VALID,1003.1,VALID,0,VALID,91.9293,VALID,0,VALID,24.1891,VALID,26,VALID,0,
2010-03-18, 00:37:04,VALID,1003.08,VALID,0,VALID,92.0209,VALID,0,VALID,24.2086,VALID,26,VALID,0,
2010-03-18, 00:38:04,VALID,1003.07,VALID,0,VALID,92.0132,VALID,0,VALID,24.1891,VALID,26,VALID,0,
2010-03-18, 00:39:04,VALID,1003.09,VALID,0,VALID,92.0056,VALID,0,VALID,24.2086,VALID,26,VALID,0,
2010-03-18, 00:40:04,VALID,1003.05,VALID,0,VALID,91.9674,VALID,0,VALID,24.1891,VALID,26,VALID,0,
2010-03-18, 00:41:04,VALID,1003.03,VALID,0,VALID,91.9217,VALID,0,VALID,24.1696,VALID,26,VALID,0,
2010-03-18, 00:42:04,VALID,1003.02,VALID,0,VALID,92.0209,VALID,0,VALID,24.1696,VALID,26,VALID,0,
2010-03-18, 00:43:04,VALID,1003.03,VALID,0,VALID,92.0437,VALID,0,VALID,24.1891,VALID,26,VALID,0,
2010-03-18, 00:44:04,VALID,1002.99,VALID,0,VALID,92.0971,VALID,0,VALID,24.1677,VALID,26,VALID,0,
2010-03-18, 00:45:04,VALID,1002.97,VALID,0,VALID,92.059,VALID,0,VALID,24.1891,VALID,26,VALID,0,
2010-03-18, 00:46:04,VALID,1002.97,VALID,0,VALID,92.1353,VALID,0,VALID,24.1891,VALID,26,VALID,0,
2010-03-18, 00:47:04,VALID,1002.97,VALID,0,VALID,92.0895,VALID,0,VALID,24.1696,VALID,26,VALID,0,
2010-03-18, 00:48:04,VALID,1003.02,VALID,0,VALID,92.0819,VALID,0,VALID,24.1696,VALID,26,VALID,0,
2010-03-18, 00:49:04,VALID,1003.01,VALID,0,VALID,92.1124,VALID,0,VALID,24.1696,VALID,26,VALID,0,
2010-03-18, 00:50:04,VALID,1003.01,VALID,0,VALID,92.1506,VALID,0,VALID,24.1696,VALID,26,VALID,0,
2010-03-18, 00:51:04,VALID,1003,VALID,0,VALID,92.1811,VALID,0,VALID,24.1696,VALID,26,VALID,0,
2010-03-18, 00:52:04,VALID,1002.98,VALID,0,VALID,92.2192,VALID,0,VALID,24.1696,VALID,26,VALID,0,
2010-03-18, 00:53:04,VALID,1002.99,VALID,0,VALID,92.2497,VALID,0,VALID,24.1891,VALID,26,VALID,0,
2010-03-18, 00:54:04,VALID,1002.95,VALID,0,VALID,92.2421,VALID,0,VALID,24.2086,VALID,26,VALID,0,
2010-03-18, 00:55:04,VALID,1002.94,VALID,0,VALID,92.2421,VALID,0,VALID,24.1872,VALID,26,VALID,0,
2010-03-18, 00:56:04,VALID,1002.95,VALID,0,VALID,92.2192,VALID,0,VALID,24.2086,VALID,26,VALID,0,
2010-03-18, 00:57:04,VALID,1002.91,VALID,0,VALID,92.2345,VALID,0,VALID,24.2086,VALID,26,VALID,0,
2010-03-18, 00:58:04,VALID,1002.91,VALID,0,VALID,92.204,VALID,0,VALID,24.2086,VALID,26,VALID,0,
2010-03-18, 00:59:04,VALID,1002.88,VALID,0,VALID,92.1658,VALID,0,VALID,24.2086,VALID,26,VALID,0,
2010-03-18, 01:00:04,VALID,1002.92,VALID,0,VALID,92.1277,VALID,0,VALID,24.1696,VALID,26,VALID,0,
2010-03-18, 01:01:04,VALID,1002.87,VALID,0,VALID,92.0895,VALID,0,VALID,24.15,VALID,26,VALID,0,
2010-03-18, 01:02:04,VALID,1002.86,VALID,0,VALID,92.0819,VALID,0,VALID,24.1305,VALID,26,VALID,0,
2010-03-18, 01:03:04,VALID,1002.82,VALID,0,VALID,92.0971,VALID,0,VALID,24.1305,VALID,26,VALID,0,
2010-03-18, 01:04:04,VALID,1002.78,VALID,0,VALID,92.1048,VALID,0,VALID,24.1305,VALID,26,VALID,0,
2010-03-18, 01:05:04,VALID,1002.8,VALID,0,VALID,92.12,VALID,0,VALID,24.1305,VALID,26,VALID,0,
2010-03-18, 01:06:04,VALID,1002.75,VALID,0,VALID,92.1048,VALID,0,VALID,24.1305,VALID,26,VALID,0,
2010-03-18, 01:07:04,VALID,1002.76,VALID,0,VALID,92.12,VALID,0,VALID,24.111,VALID,26,VALID,0,
2010-03-18, 01:08:04,VALID,1002.75,VALID,0,VALID,92.0819,VALID,0,VALID,24.111,VALID,26,VALID,0,
2010-03-18, 01:09:04,VALID,1002.73,VALID,0,VALID,92.0743,VALID,0,VALID,24.111,VALID,26,VALID,0,
2010-03-18, 01:10:04,VALID,1002.72,VALID,0,VALID,92.0819,VALID,0,VALID,24.111,VALID,26,VALID,0,
2010-03-18, 01:11:04,VALID,1002.72,VALID,0,VALID,92.1048,VALID,0,VALID,24.1324,VALID,43,VALID,0.873828,
2010-03-18, 01:12:04,VALID,1002.68,VALID,0,VALID,92.0971,VALID,0,VALID,24.111,VALID,43,VALID,0.928906,
2010-03-18, 01:13:04,VALID,1002.65,VALID,0,VALID,92.12,VALID,0,VALID,24.1305,VALID,43,VALID,0.616797,
2010-03-18, 01:14:04,VALID,1002.61,VALID,0,VALID,92.0895,VALID,0,VALID,24.15,VALID,41,VALID,0.420703,
2010-03-18, 01:15:04,VALID,1002.6,VALID,0,VALID,92.0514,VALID,0,VALID,24.15,VALID,41,VALID,0.320703,
2010-03-18, 01:16:04,VALID,1002.57,VALID,0,VALID,92.0361,VALID,0,VALID,24.15,VALID,41,VALID,0,
2010-03-18, 01:17:04,VALID,1002.58,VALID,0,VALID,92.0132,VALID,0,VALID,24.1482,VALID,41,VALID,0,
2010-03-18, 01:18:04,VALID,1002.57,VALID,0,VALID,91.9903,VALID,0,VALID,24.1696,VALID,41,VALID,0,
2010-03-18, 01:19:04,VALID,1002.56,VALID,0,VALID,91.9827,VALID,0,VALID,24.15,VALID,41,VALID,0,
2010-03-18, 01:20:04,VALID,1002.54,VALID,0,VALID,91.9674,VALID,0,VALID,24.1287,VALID,41,VALID,0,
2010-03-18, 01:21:04,VALID,1002.57,VALID,0,VALID,91.9522,VALID,0,VALID,24.1696,VALID,41,VALID,0,
2010-03-18, 01:22:04,VALID,1002.54,VALID,0,VALID,91.9369,VALID,0,VALID,24.1696,VALID,41,VALID,0,
2010-03-18, 01:23:04,VALID,1002.53,VALID,0,VALID,91.9293,VALID,0,VALID,24.15,VALID,41,VALID,0,
2010-03-18, 01:24:04,VALID,1002.53,VALID,0,VALID,91.9293,VALID,0,VALID,24.1482,VALID,41,VALID,0,
2010-03-18, 01:25:04,VALID,1002.52,VALID,0,VALID,91.9522,VALID,0,VALID,24.1696,VALID,41,VALID,0,
2010-03-18, 01:26:04,VALID,1002.48,VALID,0,VALID,91.9674,VALID,0,VALID,24.1696,VALID,41,VALID,0,
2010-03-18, 01:27:04,VALID,1002.48,VALID,0,VALID,91.9674,VALID,0,VALID,24.1909,VALID,41,VALID,0,
2010-03-18, 01:28:04,VALID,1002.47,VALID,0,VALID,91.9445,VALID,0,VALID,24.1677,VALID,41,VALID,0,
2010-03-18, 01:29:04,VALID,1002.47,VALID,0,VALID,91.9598,VALID,0,VALID,24.1891,VALID,41,VALID,0,
2010-03-18, 01:30:04,VALID,1002.45,VALID,0,VALID,92.0209,VALID,0,VALID,24.1891,VALID,55,VALID,0.458984,
2010-03-18, 01:31:04,VALID,1002.43,VALID,0,VALID,92.0209,VALID,0,VALID,24.2086,VALID,71,VALID,0.446484,
2010-03-18, 01:32:04,VALID,1002.44,VALID,0,VALID,91.998,VALID,0,VALID,24.2086,VALID,71,VALID,0.328906,
2010-03-18, 01:33:04,VALID,1002.36,VALID,0,VALID,91.9903,VALID,0,VALID,24.2067,VALID,71,VALID,0.2625,
2010-03-18, 01:34:04,VALID,1002.38,VALID,0,VALID,91.9674,VALID,0,VALID,24.2067,VALID,71,VALID,0,
2010-03-18, 01:35:04,VALID,1002.38,VALID,0,VALID,91.8988,VALID,0,VALID,24.2476,VALID,71,VALID,0.0183594,
2010-03-18, 01:36:04,VALID,1002.39,VALID,0,VALID,91.8683,VALID,0,VALID,24.2067,VALID,71,VALID,0,
2010-03-18, 01:37:04,VALID,1002.34,VALID,0,VALID,91.8835,VALID,0,VALID,24.2281,VALID,71,VALID,0.122266,
2010-03-18, 01:38:04,VALID,1002.35,VALID,0,VALID,91.8911,VALID,0,VALID,24.2281,VALID,71,VALID,0.104297,
2010-03-18, 01:39:04,VALID,1002.34,VALID,0,VALID,91.8759,VALID,0,VALID,24.2281,VALID,71,VALID,0.143359,
2010-03-18, 01:40:04,VALID,1002.31,VALID,0,VALID,91.853,VALID,0,VALID,24.2281,VALID,71,VALID,0,
2010-03-18, 01:41:04,VALID,1002.31,VALID,0,VALID,91.8759,VALID,0,VALID,24.2281,VALID,71,VALID,0,
2010-03-18, 01:42:04,VALID,1002.33,VALID,0,VALID,91.8683,VALID,0,VALID,24.2281,VALID,71,VALID,0,
2010-03-18, 01:43:04,VALID,1002.31,VALID,0,VALID,91.8454,VALID,0,VALID,24.2086,VALID,71,VALID,0,
2010-03-18, 01:44:04,VALID,1002.3,VALID,0,VALID,91.8377,VALID,0,VALID,24.2086,VALID,71,VALID,0,
2010-03-18, 01:45:04,VALID,1002.31,VALID,0,VALID,91.8454,VALID,0,VALID,24.2086,VALID,71,VALID,0,
2010-03-18, 01:46:04,VALID,1002.28,VALID,0,VALID,91.853,VALID,0,VALID,24.2086,VALID,71,VALID,0,
2010-03-18, 01:47:04,VALID,1002.29,VALID,0,VALID,91.9217,VALID,0,VALID,24.2281,VALID,71,VALID,0,
2010-03-18, 01:48:04,VALID,1002.3,VALID,0,VALID,91.9217,VALID,0,VALID,24.2086,VALID,71,VALID,0,
2010-03-18, 01:49:04,VALID,1002.29,VALID,0,VALID,91.8835,VALID,0,VALID,24.2281,VALID,71,VALID,0,
2010-03-18, 01:50:04,VALID,1002.28,VALID,0,VALID,91.8835,VALID,0,VALID,24.2281,VALID,71,VALID,0,
2010-03-18, 01:51:04,VALID,1002.24,VALID,0,VALID,91.8759,VALID,0,VALID,24.2281,VALID,71,VALID,0,
2010-03-18, 01:52:04,VALID,1002.26,VALID,0,VALID,91.8606,VALID,0,VALID,24.2263,VALID,71,VALID,0.584766,
2010-03-18, 01:53:04,VALID,1002.27,VALID,0,VALID,91.8225,VALID,0,VALID,24.2476,VALID,71,VALID,0.357031,
2010-03-18, 01:54:04,VALID,1002.24,VALID,0,VALID,91.7996,VALID,0,VALID,24.2476,VALID,71,VALID,0,
2010-03-18, 01:55:04,VALID,1002.25,VALID,0,VALID,91.7614,VALID,0,VALID,24.2281,VALID,71,VALID,0,
2010-03-18, 01:56:04,VALID,1002.21,VALID,0,VALID,91.7538,VALID,0,VALID,24.2476,VALID,71,VALID,0,
2010-03-18, 01:57:04,VALID,1002.23,VALID,0,VALID,91.7385,VALID,0,VALID,24.2263,VALID,71,VALID,0,
2010-03-18, 01:58:04,VALID,1002.21,VALID,0,VALID,91.708,VALID,0,VALID,24.2281,VALID,71,VALID,0,
2010-03-18, 01:59:04,VALID,1002.21,VALID,0,VALID,91.7385,VALID,0,VALID,24.2281,VALID,71,VALID,0,
2010-03-18, 02:00:04,VALID,1002.21,VALID,0,VALID,91.7538,VALID,0,VALID,24.2086,VALID,71,VALID,0,
2010-03-18, 02:01:04,VALID,1002.2,VALID,0,VALID,91.7614,VALID,0,VALID,24.2281,VALID,71,VALID,0,
2010-03-18, 02:02:04,VALID,1002.19,VALID,0,VALID,91.7691,VALID,0,VALID,24.2067,VALID,71,VALID,0,
2010-03-18, 02:03:04,VALID,1002.2,VALID,0,VALID,91.7462,VALID,0,VALID,24.1872,VALID,71,VALID,0,
2010-03-18, 02:04:04,VALID,1002.17,VALID,0,VALID,91.7462,VALID,0,VALID,24.2086,VALID,71,VALID,0,
2010-03-18, 02:05:04,VALID,1002.13,VALID,0,VALID,91.7233,VALID,0,VALID,24.1891,VALID,71,VALID,0,
2010-03-18, 02:06:04,VALID,1002.14,VALID,0,VALID,91.7385,VALID,0,VALID,24.1891,VALID,71,VALID,0,
2010-03-18, 02:07:04,VALID,1002.12,VALID,0,VALID,91.7157,VALID,0,VALID,24.1482,VALID,71,VALID,0,
2010-03-18, 02:08:04,VALID,1002.12,VALID,0,VALID,91.6928,VALID,0,VALID,24.1287,VALID,71,VALID,0,
2010-03-18, 02:09:04,VALID,1002.11,VALID,0,VALID,91.708,VALID,0,VALID,24.1305,VALID,71,VALID,0,
2010-03-18, 02:10:04,VALID,1002.09,VALID,0,VALID,91.708,VALID,0,VALID,24.1305,VALID,71,VALID,0,
2010-03-18, 02:11:04,VALID,1002.09,VALID,0,VALID,91.708,VALID,0,VALID,24.111,VALID,71,VALID,0,
2010-03-18, 02:12:04,VALID,1002.09,VALID,0,VALID,91.7233,VALID,0,VALID,24.0701,VALID,71,VALID,0,
2010-03-18, 02:13:04,VALID,1002.09,VALID,0,VALID,91.7691,VALID,0,VALID,24.0915,VALID,71,VALID,0,
2010-03-18, 02:14:04,VALID,1002.08,VALID,0,VALID,91.792,VALID,0,VALID,24.0915,VALID,71,VALID,0,
2010-03-18, 02:15:04,VALID,1002.09,VALID,0,VALID,91.7462,VALID,0,VALID,24.0915,VALID,71,VALID,0,
2010-03-18, 02:16:04,VALID,1002.08,VALID,0,VALID,91.7385,VALID,0,VALID,24.0915,VALID,71,VALID,0,
2010-03-18, 02:17:04,VALID,1002.08,VALID,0,VALID,91.7462,VALID,0,VALID,24.072,VALID,71,VALID,0,
2010-03-18, 02:18:04,VALID,1002.09,VALID,0,VALID,91.7462,VALID,0,VALID,24.0525,VALID,71,VALID,0,
2010-03-18, 02:19:04,VALID,1002.08,VALID,0,VALID,91.7538,VALID,0,VALID,24.072,VALID,71,VALID,0,
2010-03-18, 02:20:04,VALID,1002.05,VALID,0,VALID,91.7157,VALID,0,VALID,24.0525,VALID,71,VALID,0,
2010-03-18, 02:21:04,VALID,1002.07,VALID,0,VALID,91.6775,VALID,0,VALID,24.0134,VALID,71,VALID,0,
2010-03-18, 02:22:04,VALID,1002.07,VALID,0,VALID,91.5402,VALID,0,VALID,23.9744,VALID,71,VALID,0,
2010-03-18, 02:23:04,VALID,1002.06,VALID,0,VALID,91.7843,VALID,0,VALID,23.9531,VALID,71,VALID,0,
2010-03-18, 02:24:04,VALID,1002.06,VALID,0,VALID,91.7843,VALID,0,VALID,23.9336,VALID,71,VALID,0,
2010-03-18, 02:25:04,VALID,1002.05,VALID,0,VALID,91.8225,VALID,0,VALID,23.9354,VALID,71,VALID,0,
2010-03-18, 02:26:04,VALID,1002.06,VALID,0,VALID,91.8072,VALID,0,VALID,23.914,VALID,71,VALID,0,
2010-03-18, 02:27:04,VALID,1002.05,VALID,0,VALID,92.0132,VALID,0,VALID,23.9354,VALID,71,VALID,0,
2010-03-18, 02:28:04,VALID,1002.07,VALID,0,VALID,92.12,VALID,0,VALID,23.9744,VALID,71,VALID,0,
2010-03-18, 02:29:04,VALID,1002.03,VALID,0,VALID,91.9522,VALID,0,VALID,23.9549,VALID,71,VALID,0,
2010-03-18, 02:30:04,VALID,1002.03,VALID,0,VALID,92.12,VALID,0,VALID,23.9549,VALID,71,VALID,0,
2010-03-18, 02:31:04,VALID,1002.01,VALID,0,VALID,92.1582,VALID,0,VALID,23.9744,VALID,71,VALID,0,
2010-03-18, 02:32:04,VALID,1002.02,VALID,0,VALID,92.1277,VALID,0.112286,VALID,23.9744,VALID,71,VALID,0,
2010-03-18, 02:33:04,VALID,1001.99,VALID,0,VALID,92.1429,VALID,0,VALID,23.9336,VALID,71,VALID,0,
2010-03-18, 02:34:04,VALID,1001.99,VALID,0,VALID,92.1811,VALID,0,VALID,23.9531,VALID,71,VALID,0,
2010-03-18, 02:35:04,VALID,1002.03,VALID,0,VALID,92.1887,VALID,0,VALID,23.9531,VALID,71,VALID,0,
2010-03-18, 02:36:04,VALID,1001.98,VALID,0,VALID,92.2192,VALID,0,VALID,23.9549,VALID,71,VALID,0,
2010-03-18, 02:37:04,VALID,1001.97,VALID,0,VALID,92.2421,VALID,0,VALID,23.9744,VALID,71,VALID,0,
2010-03-18, 02:38:04,VALID,1001.95,VALID,0,VALID,92.1963,VALID,0,VALID,23.9354,VALID,71,VALID,0,
2010-03-18, 02:39:04,VALID,1001.92,VALID,0,VALID,92.12,VALID,0,VALID,23.9159,VALID,71,VALID,0,
2010-03-18, 02:40:04,VALID,1001.93,VALID,0,VALID,92.059,VALID,0,VALID,23.8768,VALID,71,VALID,0,
2010-03-18, 02:41:04,VALID,1001.94,VALID,0,VALID,92.0132,VALID,0,VALID,23.8378,VALID,71,VALID,0,
2010-03-18, 02:42:04,VALID,1001.94,VALID,0,VALID,91.9522,VALID,0,VALID,23.7775,VALID,71,VALID,0,
2010-03-18, 02:43:04,VALID,1001.95,VALID,0,VALID,92.0514,VALID,0,VALID,23.7384,VALID,71,VALID,0,
2010-03-18, 02:44:04,VALID,1001.97,VALID,0,VALID,92.2497,VALID,0.112286,VALID,23.7384,VALID,71,VALID,0,
2010-03-18, 02:45:04,VALID,1001.96,VALID,0,VALID,92.2574,VALID,0,VALID,23.7402,VALID,71,VALID,0,
2010-03-18, 02:46:04,VALID,1001.96,VALID,0,VALID,92.2116,VALID,0,VALID,23.7207,VALID,71,VALID,0,
2010-03-18, 02:47:04,VALID,1001.95,VALID,0,VALID,92.265,VALID,0,VALID,23.7012,VALID,71,VALID,0,
2010-03-18, 02:48:04,VALID,1001.96,VALID,0,VALID,92.3566,VALID,0,VALID,23.6799,VALID,71,VALID,0,
2010-03-18, 02:49:04,VALID,1001.97,VALID,0,VALID,92.2268,VALID,0,VALID,23.6817,VALID,71,VALID,0,
2010-03-18, 02:50:04,VALID,1001.98,VALID,0,VALID,92.1658,VALID,0,VALID,23.6214,VALID,71,VALID,0,
2010-03-18, 02:51:04,VALID,1001.97,VALID,0,VALID,92.2192,VALID,0,VALID,23.6036,VALID,71,VALID,0.360156,
2010-03-18, 02:52:04,VALID,1001.97,VALID,0,VALID,92.3718,VALID,0,VALID,23.6019,VALID,67,VALID,0.673828,
2010-03-18, 02:53:04,VALID,1001.98,VALID,0,VALID,92.3794,VALID,0,VALID,23.6036,VALID,65,VALID,0.705469,
2010-03-18, 02:54:04,VALID,1001.98,VALID,0,VALID,92.3642,VALID,0,VALID,23.6232,VALID,65,VALID,0.702734,
2010-03-18, 02:55:04,VALID,1001.95,VALID,0,VALID,92.4557,VALID,0,VALID,23.6019,VALID,65,VALID,0.707031,
2010-03-18, 02:56:04,VALID,1001.93,VALID,0,VALID,92.4634,VALID,0,VALID,23.6427,VALID,65,VALID,0.596094,
2010-03-18, 02:57:04,VALID,1001.93,VALID,0,VALID,92.4176,VALID,0,VALID,23.6214,VALID,65,VALID,0.467187,
2010-03-18, 02:58:04,VALID,1001.93,VALID,0,VALID,92.326,VALID,0,VALID,23.6019,VALID,65,VALID,0.379297,
2010-03-18, 02:59:04,VALID,1001.93,VALID,0,VALID,92.3489,VALID,0,VALID,23.6036,VALID,65,VALID,0.437109,
2010-03-18, 03:00:04,VALID,1001.95,VALID,0,VALID,92.3718,VALID,0,VALID,23.5628,VALID,47,VALID,0.613281,
2010-03-18, 03:01:04,VALID,1001.96,VALID,0,VALID,92.5397,VALID,0,VALID,23.6019,VALID,37,VALID,0.815234,
2010-03-18, 03:02:04,VALID,1001.93,VALID,0,VALID,92.4328,VALID,0,VALID,23.6019,VALID,37,VALID,0.707812,
2010-03-18, 03:03:04,VALID,1001.96,VALID,0,VALID,92.3871,VALID,0,VALID,23.6036,VALID,37,VALID,0.670313,
2010-03-18, 03:04:04,VALID,1001.96,VALID,0,VALID,92.41,VALID,0,VALID,23.5628,VALID,37,VALID,0.579687,
2010-03-18, 03:05:04,VALID,1001.96,VALID,0,VALID,92.41,VALID,0,VALID,23.5646,VALID,37,VALID,0.482422,
2010-03-18, 03:06:04,VALID,1001.97,VALID,0,VALID,92.4405,VALID,0,VALID,23.5238,VALID,37,VALID,0.528516,
2010-03-18, 03:07:04,VALID,1001.98,VALID,0,VALID,92.471,VALID,0,VALID,23.5256,VALID,37,VALID,0.578125,
2010-03-18, 03:08:04,VALID,1001.99,VALID,0,VALID,92.5244,VALID,0,VALID,23.5451,VALID,37,VALID,0.569922,
2010-03-18, 03:09:04,VALID,1002.02,VALID,0,VALID,92.5549,VALID,0,VALID,23.5451,VALID,37,VALID,0.738672,
2010-03-18, 03:10:04,VALID,1002.02,VALID,0,VALID,92.7151,VALID,0,VALID,23.5646,VALID,37,VALID,0.817969,
2010-03-18, 03:11:04,VALID,1002.02,VALID,0,VALID,92.8067,VALID,0,VALID,23.6036,VALID,37,VALID,0.871484,
2010-03-18, 03:12:04,VALID,1002.06,VALID,0,VALID,92.7685,VALID,0,VALID,23.6232,VALID,37,VALID,0.936719,
2010-03-18, 03:13:04,VALID,1002.04,VALID,0,VALID,92.738,VALID,0,VALID,23.6214,VALID,38,VALID,0.796875,
2010-03-18, 03:14:04,VALID,1002.04,VALID,0,VALID,92.6999,VALID,0,VALID,23.6232,VALID,42,VALID,0.839453,
2010-03-18, 03:15:04,VALID,1002.03,VALID,0,VALID,92.7151,VALID,0,VALID,23.6232,VALID,43,VALID,0.683594,
2010-03-18, 03:16:04,VALID,1002.01,VALID,0,VALID,92.7228,VALID,0,VALID,23.6036,VALID,45,VALID,0.687109,
2010-03-18, 03:17:04,VALID,1002.02,VALID,0,VALID,92.6617,VALID,0,VALID,23.6036,VALID,45,VALID,0.514844,
2010-03-18, 03:18:04,VALID,1001.98,VALID,0,VALID,92.616,VALID,0,VALID,23.5646,VALID,45,VALID,0.673047,
2010-03-18, 03:19:04,VALID,1001.97,VALID,0,VALID,92.6007,VALID,0,VALID,23.5451,VALID,45,VALID,0.593359,
2010-03-18, 03:20:04,VALID,1001.96,VALID,0,VALID,92.6388,VALID,0,VALID,23.5646,VALID,45,VALID,0.589063,
2010-03-18, 03:21:04,VALID,1001.97,VALID,0,VALID,92.5778,VALID,0,VALID,23.5238,VALID,45,VALID,0.561328,
2010-03-18, 03:22:04,VALID,1001.98,VALID,0,VALID,92.4481,VALID,0,VALID,23.4866,VALID,45,VALID,0.364844,
2010-03-18, 03:23:04,VALID,1001.99,VALID,0,VALID,92.5244,VALID,0,VALID,23.4263,VALID,45,VALID,0.716016,
2010-03-18, 03:24:04,VALID,1001.96,VALID,0,VALID,92.6236,VALID,0,VALID,23.428,VALID,45,VALID,0.793359,
2010-03-18, 03:25:04,VALID,1001.97,VALID,0,VALID,92.6694,VALID,0,VALID,23.4263,VALID,45,VALID,0.598828,
2010-03-18, 03:26:04,VALID,1001.98,VALID,0,VALID,92.7304,VALID,0,VALID,23.4263,VALID,45,VALID,0.507813,
2010-03-18, 03:27:04,VALID,1002,VALID,0,VALID,92.6999,VALID,0,VALID,23.4475,VALID,45,VALID,0.389453,
2010-03-18, 03:28:04,VALID,1002,VALID,0,VALID,92.6923,VALID,0,VALID,23.4475,VALID,45,VALID,0.344922,
2010-03-18, 03:29:04,VALID,1001.99,VALID,0,VALID,92.6694,VALID,0,VALID,23.428,VALID,45,VALID,0.369141,
2010-03-18, 03:30:04,VALID,1002.01,VALID,0,VALID,92.7151,VALID,0,VALID,23.4475,VALID,45,VALID,0.300781,
2010-03-18, 03:31:04,VALID,1002.02,VALID,0,VALID,92.7151,VALID,0,VALID,23.4475,VALID,45,VALID,0.391797,
2010-03-18, 03:32:04,VALID,1002.05,VALID,0,VALID,92.7685,VALID,0,VALID,23.4671,VALID,69,VALID,0.610937,
2010-03-18, 03:33:04,VALID,1002.05,VALID,0,VALID,92.7228,VALID,0,VALID,23.4671,VALID,82,VALID,0.635156,
2010-03-18, 03:34:04,VALID,1002.07,VALID,0,VALID,92.7457,VALID,0,VALID,23.4866,VALID,82,VALID,0.519141,
2010-03-18, 03:35:04,VALID,1002.05,VALID,0,VALID,92.7304,VALID,0,VALID,23.5061,VALID,82,VALID,0.452734,
2010-03-18, 03:36:04,VALID,1002.07,VALID,0,VALID,92.7914,VALID,0,VALID,23.5469,VALID,82,VALID,0.340625,
2010-03-18, 03:37:04,VALID,1002.08,VALID,0,VALID,92.7838,VALID,0,VALID,23.5451,VALID,82,VALID,0.223047,
2010-03-18, 03:38:04,VALID,1002.07,VALID,0,VALID,92.7991,VALID,0,VALID,23.5451,VALID,82,VALID,0,
2010-03-18, 03:39:04,VALID,1002.05,VALID,0,VALID,92.7762,VALID,0,VALID,23.5451,VALID,82,VALID,0.542188,
2010-03-18, 03:40:04,VALID,1002.07,VALID,0,VALID,92.7457,VALID,0,VALID,23.5451,VALID,82,VALID,0.605078,
2010-03-18, 03:41:04,VALID,1002.04,VALID,0,VALID,92.6923,VALID,0,VALID,23.5451,VALID,82,VALID,0.716016,
2010-03-18, 03:42:04,VALID,1002.06,VALID,0,VALID,92.6236,VALID,0,VALID,23.5061,VALID,82,VALID,0.617969,
2010-03-18, 03:43:04,VALID,1002.05,VALID,0,VALID,92.6312,VALID,0,VALID,23.4866,VALID,82,VALID,0.632813,
2010-03-18, 03:44:04,VALID,1002.05,VALID,0,VALID,92.6846,VALID,0,VALID,23.4866,VALID,82,VALID,0.685156,
2010-03-18, 03:45:04,VALID,1002.04,VALID,0,VALID,92.677,VALID,0,VALID,23.4866,VALID,84,VALID,0.660156,
2010-03-18, 03:46:04,VALID,1001.99,VALID,0,VALID,92.6617,VALID,0,VALID,23.4848,VALID,85,VALID,0.447266,
2010-03-18, 03:47:04,VALID,1001.98,VALID,0,VALID,92.677,VALID,0,VALID,23.4653,VALID,85,VALID,0.406641,
2010-03-18, 03:48:04,VALID,1002.01,VALID,0,VALID,92.6541,VALID,0,VALID,23.4458,VALID,85,VALID,0.290625,
2010-03-18, 03:49:04,VALID,1002,VALID,0,VALID,92.6083,VALID,0,VALID,23.4263,VALID,85,VALID,0.0347656,
2010-03-18, 03:50:04,VALID,1002.04,VALID,0,VALID,92.6388,VALID,0,VALID,23.4067,VALID,85,VALID,0,
2010-03-18, 03:51:04,VALID,1002.04,VALID,0,VALID,92.5931,VALID,0,VALID,23.3872,VALID,85,VALID,0,
2010-03-18, 03:52:04,VALID,1002.05,VALID,0,VALID,92.5626,VALID,0,VALID,23.3695,VALID,85,VALID,0,
2010-03-18, 03:53:04,VALID,1002.04,VALID,0,VALID,92.5397,VALID,0,VALID,23.3287,VALID,85,VALID,0,
2010-03-18, 03:54:04,VALID,1002.01,VALID,0,VALID,92.5626,VALID,0,VALID,23.3092,VALID,85,VALID,0,
2010-03-18, 03:55:04,VALID,1002.02,VALID,0,VALID,92.5473,VALID,0.112286,VALID,23.2897,VALID,85,VALID,0,
2010-03-18, 03:56:04,VALID,1002.01,VALID,0,VALID,92.5244,VALID,0.112286,VALID,23.2702,VALID,85,VALID,0,